Flag for United Kingdom Weather past 2 weeks in Newport, Wales, United Kingdom

Now
43 °F

Scattered clouds.


Feels Like: 35 °F
Forecast: 44 / 53 °F
Wind: 17 mph from West

Location: Bristol / Lulsgate

Current Time: Dec 19, 2014 at 8:43:59 AM

Latest Report: Dec 19, 2014 at 8:20 AM


Visibility: N/A

Pressure: 29.95 "Hg

Humidity: 81%

Dew point: 37 °F

Location of NewportLocation

Historic Weather in Newport — Graph

°F

Newport temperature yesterday

Maximum temperature yesterday: 54 °F (at 12:20 PM)
Minimum temperature yesterday: 50 °F (at 1:50 AM)
Average temperature yesterday: 51 °F

Past Weeks' High & Low Weather Summary

 TemperatureHumidityPressure
High54 °F (Dec 18, 12:20 PM)100% (Dec 7, 3:20 AM)30.39 "Hg (Dec 7, 3:20 AM)
Low32 °F (Dec 6, 3:20 AM)61% (Dec 5, 1:50 PM)29.27 "Hg (Dec 12, 2:50 AM)
Average42 °F87%29.95 "Hg
* Reported Dec 4 7:20 AM — Dec 19 7:20 AM, Newport, Weather by CustomWeather, © 2014

Note: Actual official high and low records may vary slightly from our data, if they occured in-between our weather recording intervals... More about our weather records

Advertising

Newport weather history for previous 24 hours

 ConditionsComfort  
Time TempWeatherWind HumidityBarometerVisibility
7:20 AM
Dec 19
46 °FPassing clouds.16 mph93%29.92 "HgN/A
6:50 AM46 °FPartly cloudy.13 mph93%29.89 "HgN/A
6:20 AM48 °FPassing clouds.15 mph94%29.86 "HgN/A
5:50 AM48 °FOvercast.16 mph94%29.86 "HgN/A
5:20 AM48 °FMostly cloudy.18 mph100%29.83 "HgN/A
4:50 AM50 °FFog.20 mph100%29.80 "Hg1 mi
4:20 AM52 °FRain. Low clouds.21 mph94%29.80 "Hg1 mi
3:20 AM52 °FRain. Fog.21 mph94%29.80 "Hg1 mi
2:50 AM52 °FRain. Low clouds.22 mph94%29.80 "Hg1 mi
2:20 AM52 °FRain. Low clouds.18 mph94%29.80 "Hg1 mi
1:50 AM52 °FRain. Low clouds.17 mph94%29.80 "Hg1 mi
1:20 AM52 °FRain. Low clouds.17 mph94%29.80 "Hg1 mi
12:50 AM52 °FRain. Low clouds.18 mph94%29.80 "Hg1 mi
12:20 AM52 °FLight rain. Low clouds.20 mph94%29.80 "Hg3 mi
11:50 PM
Dec 18
52 °FRain. Low clouds.20 mph94%29.83 "Hg3 mi
11:20 PM52 °FRain. Low clouds.21 mph94%29.83 "Hg1 mi
10:50 PM54 °FLight rain. Low clouds.18 mph88%29.83 "Hg4 mi
10:20 PM52 °FLight rain. Low clouds.18 mph94%29.83 "Hg0 mi
9:50 PM52 °FPassing clouds.18 mph94%29.83 "HgN/A
9:20 PM52 °FRain. Fog.20 mph94%29.86 "Hg2 mi
8:20 PM52 °FSprinkles. Partly cloudy.20 mph94%29.86 "HgN/A
7:50 PM52 °FSprinkles. Passing clouds.22 mph94%29.86 "HgN/A
7:20 PM52 °FLight rain. Passing clouds.20 mph94%29.83 "HgN/A
6:50 PM52 °FLight rain. Passing clouds.20 mph94%29.83 "HgN/A
6:20 PM52 °FLight rain. Passing clouds.20 mph94%29.86 "HgN/A
5:50 PM52 °FScattered showers. Passing clouds.20 mph94%29.86 "HgN/A
5:20 PM52 °FScattered showers. Passing clouds.18 mph94%29.86 "HgN/A
4:50 PM52 °FPassing clouds.21 mph94%29.83 "Hg4 mi
4:20 PM52 °FScattered showers. Passing clouds.20 mph94%29.86 "Hg6 mi
3:50 PM52 °FScattered showers. Partly sunny.20 mph94%29.83 "HgN/A
3:20 PM54 °FScattered showers. Partly sunny.20 mph88%29.83 "HgN/A
2:50 PM54 °FScattered showers. Partly sunny.15 mph88%29.83 "HgN/A
2:20 PM52 °FScattered showers. Partly sunny.15 mph94%29.83 "HgN/A
1:50 PM52 °FDrizzle. Partly sunny.20 mph94%29.86 "Hg2 mi
1:20 PM54 °FPartly sunny.18 mph88%29.86 "HgN/A
12:50 PM52 °FScattered showers. Partly sunny.17 mph94%29.86 "HgN/A
12:20 PM54 °FDrizzle. Partly sunny.18 mph88%29.86 "Hg4 mi
11:50 AM52 °FBroken clouds.16 mph94%29.86 "HgN/A
11:20 AM52 °FPartly sunny.16 mph94%29.86 "HgN/A
10:20 AM50 °FPartly sunny.18 mph94%29.89 "HgN/A
9:50 AM50 °FMostly cloudy.21 mph94%29.89 "HgN/A
9:20 AM50 °FBroken clouds.20 mph94%29.86 "HgN/A
8:50 AM50 °FBroken clouds.20 mph100%29.86 "HgN/A
8:20 AM50 °FScattered showers. Partly sunny.21 mph100%29.86 "Hg5 mi
Weather by CustomWeather, © 2014

See weather overviewHow to use our weather pages